Regional Weather Roundup
Issued by NWS Northern Indiana

Home | Current Version | Previous Version | Graphics & Text | Print | Product List | Glossary On
Versions: 1 2 3 4 5 6 7 8 9 10 11 12 13 14 15 16 17 18 19 20 21 22 23 24 25 26 27 28 29 30 31 32 33 34 35 36 37 38 39 40 41 42 43 44 45 46 47 48 49 50
000
ASUS43 KIWX 200110
RWRIWX

KIWX WEATHER ROUNDUP
NATIONAL WEATHER SERVICE NORTHERN INDIANA
800 PM EST MON FEB 19 2018

NOTE: "FAIR" INDICATES FEW OR NO CLOUDS BELOW 12,000 FEET WITH NO
SIGNIFICANT WEATHER AND/OR OBSTRUCTIONS TO VISIBILITY.

* THESE STATIONS ARE NOT UNDER NWS QUALITY CONTROL. THEY ALSO MAY NOT
  REPORT WEATHER SUCH AS PRECIPITATION OR FOG.

INZ001>027-200200-
NORTHERN INDIANA

CITY           SKY/WX    TMP DP  RH WIND       PRES   REMARKS
GARY*          LGT RAIN  59  57  94 S14G29    29.87R
VALPARAISO     CLOUDY    59  56  89 S12G22    29.89F
MICHIGAN CITY* DRIZZLE   55  55 100 S14G20    29.88S
LAPORTE*       LGT RAIN  55  54  97 SW14      29.90F
SOUTH BEND     LGT RAIN  56  55  97 S17G26    29.89F
ELKHART*       DRIZZLE   55  54  94 SW12      29.92F
GOSHEN         LGT RAIN  57  55  93 S16       29.93F FOG
MONTICELLO*    RAIN      60  58  96 S18G26    29.95R
LOGANSPORT*    LGT RAIN  59  55  88 SW20      29.98R
ROCHESTER*     RAIN      61  59  94 S14G20    29.96S
WARSAW*        LGT RAIN  57  55  94 S7        29.96S
AUBURN*        LGT RAIN  59  55  88 SW10G18   29.99R
FORT WAYNE     LGT RAIN  60  57  89 SW13      30.00R
HUNTINGTON*    LGT RAIN  58  57  96 SW10G17   29.98R
PERU/GRISSOM   LGT RAIN  59  59 100 S12       29.97R
MARION*        LGT RAIN  58  57  96 SW9       30.00S

$$
INZ028>050-200200-
CENTRAL INDIANA

CITY           SKY/WX    TMP DP  RH WIND       PRES   REMARKS
LAFAYETTE      LGT RAIN  60  57  89 SW8       29.96R
KOKOMO*        CLOUDY    61  57  87 SW13      29.99R
MUNCIE*        LGT RAIN  61  56  83 S3        30.01R
INDIANAPOLIS   CLOUDY    59  56  89 SE3       30.00S

$$
MIZ043>046-050>051-056>058-064>065-071>073-077>080-200200-
SOUTHWEST LOWER MICHIGAN

CITY           SKY/WX    TMP DP  RH WIND       PRES   REMARKS
BATTLE CREEK   CLOUDY    54  53  97 SW20G25   29.90S
BENTON HARBOR  CLOUDY    56  53  90 S14       29.87S
COLDWATER*     RAIN      55  55 100 SW14G23   29.94S
HILLSDALE*     RAIN      55  52  88 SW13G21   29.96R
HOLLAND        CLOUDY    58  53  84 SW21G36   29.84S
GRAND RAPIDS   LGT RAIN  41  39  93 E7        29.87F VSB 1
KALAMAZOO      CLOUDY    53  51  93 S16       29.90S
STURGIS*       LGT RAIN  55  55  97 SW18      29.92F
THREE RIVERS*  RAIN      51  51 100 SW13      29.91S

$$
OHZ001>008-015>018-024>025-200200-
NORTHWEST OHIO

CITY           SKY/WX    TMP DP  RH WIND       PRES   REMARKS
WAUSEON*       CLOUDY    57  57 100 SW16      29.99R FOG
DEFIANCE       LGT RAIN  59  55  87 SW8       29.99R
FINDLAY        MOCLDY    62  55  77 S15       29.98S
TOLEDO EXPRESS LGT RAIN  60  57  89 SW13      29.97R
TOLEDO METCALF FAIR      58  55  90 SW10      29.99R
LIMA           CLOUDY    61  57  87 SW8       30.01R

$$
AND FOR LAKE MICHIGAN COASTAL AND OPEN LAKE BUOY OBSERVATIONS

STATION/POSITION TEMP    WIND        PRES    VSBY  WAVE
                 AIR SEA DIR/SP/G                  HT/PER
                 (F)     (DEG/KT/KT) (MB)    (MI)  (FT/S)
CALUMET HARBOR    56     190/ 10/ 16 1010.3R
MICHIGAN CITY     57     170/ 19/ 25   N/A
BURNS HARBOR      57     190/ 18/ 25 1011.9R
SAINT JOSEPH      57     210/ 17/ 23 1011.9

$$
&&




USA.gov is the U.S. government's official web portal to all federal, state and local government web resources and services.